Theta_e
278 279 280 281 283 285 289 291 295 297 297 297 298 308 314 313 312 311 310 309 307 305 304 304 304 304 305 304 303 304 304 305 303 297 301 300 300 301 301 301 301 301 302
277 278 279 281 283 285 288 291 294 297 298 298 299 310 311 311 310 309 307 307 306 304 303 303 303 303 304 305 304 305 305 307 305 295 298 299 299 300 301 300 301 301 301
277 278 279 280 282 285 289 291 294 298 297 298 303 310 309 309 309 308 307 306 305 304 303 303 303 303 302 303 305 307 307 307 306 302 294 297 297 299 299 300 300 300 300
277 278 280 281 283 285 289 291 293 298 299 299 305 309 309 308 307 305 305 304 303 303 303 303 303 303 302 303 304 307 305 302 299 295 293 293 294 296 297 297 297 298 298
277 279 281 284 289 289 290 292 294 298 301 305 307 309 307 306 304 304 303 302 301 300 301 302 302 303 303 303 303 303 301 297 295 295 293 292 292 294 294 295 294 295 296
278 280 284 292 291 292 291 293 296 301 304 302 305 305 302 302 302 302 301 300 300 300 300 301 302 302 304 300 302 302 301 300 296 296 295 293 293 294 294 295 293 292 293
279 280 284 291 293 294 295 297 299 301 302 300 300 300 300 302 301 302 301 299 299 299 300 300 300 300 301 300 300 300 299 300 303 304 298 296 293 296 294 294 294 294 295
278 279 283 286 288 291 292 292 294 297 297 297 297 297 299 299 301 302 303 301 299 300 300 299 300 300 301 301 301 302 302 301 300 301 302 301 301 299 301 297 295 294 294
277 278 281 284 285 287 289 290 290 291 292 294 294 294 295 296 300 301 301 298 298 299 300 300 300 300 300 301 301 302 302 304 304 304 305 303 301 300 300 298 295 294 289
276 277 279 283 284 285 286 288 288 288 290 291 291 292 293 294 297 298 299 297 295 296 297 298 300 300 299 300 301 301 299 299 299 300 301 300 299 301 300 299 297 293 290
275 277 278 281 283 284 285 285 287 287 287 287 288 289 290 291 293 296 298 296 294 293 293 295 296 299 300 299 300 301 299 298 296 296 297 298 298 298 298 296 295 296 294
274 276 277 279 281 282 283 284 284 286 286 286 286 286 286 288 290 292 293 294 294 293 292 294 295 295 296 296 297 297 297 297 295 294 294 293 294 294 293 293 294 294 294
273 274 275 277 279 280 281 283 283 283 284 284 284 284 284 285 286 287 289 291 292 292 292 293 293 293 294 294 295 295 296 297 294 293 292 292 293 292 292 291 291 292 292
273 273 274 275 277 278 279 281 282 282 282 282 283 283 284 284 285 285 286 288 290 290 292 292 292 293 293 292 293 294 295 295 294 292 291 291 291 290 290 291 290 290 290
272 272 273 273 274 276 278 279 280 281 282 281 282 283 284 284 285 286 286 286 287 288 289 290 291 291 291 291 291 291 292 292 292 292 291 290 288 288 288 289 289 288 285
271 271 271 272 272 273 274 276 279 279 280 282 282 282 283 284 285 285 286 286 287 287 287 287 288 288 289 290 289 289 290 291 291 291 291 289 287 287 286 286 287 287 283
270 270 270 270 271 272 272 273 274 276 277 279 279 281 282 283 284 285 285 286 286 286 286 287 287 287 288 288 289 289 289 290 290 290 289 288 287 286 286 285 285 284 282
271 270 270 270 271 271 272 273 273 273 273 275 277 277 281 282 283 283 284 284 284 284 284 284 285 286 286 287 287 288 288 288 289 289 288 287 287 286 285 285 284 283 281
271 270 271 271 271 271 272 272 272 273 273 272 275 276 278 278 279 280 282 283 283 283 283 283 283 284 285 285 285 286 287 287 287 287 287 286 286 285 285 285 283 282 281
270 270 270 270 271 271 271 271 271 271 271 271 272 273 275 279 276 277 278 279 281 282 282 282 282 283 283 284 285 285 285 285 286 286 286 286 285 285 285 283 283 281 280
270 270 270 270 270 270 270 270 270 270 270 270 271 273 274 274 273 274 275 275 277 279 280 281 281 281 282 283 283 284 284 284 285 285 286 286 285 285 284 283 282 281 280
269 269 269 269 269 269 269 269 269 270 270 270 270 271 272 273 274 273 273 274 274 275 277 279 280 280 281 281 282 283 284 284 284 285 285 285 285 284 283 282 282 280 279
268 268 268 268 268 268 268 268 268 268 269 269 270 270 271 272 272 273 274 275 276 277 277 277 278 279 279 281 281 282 283 284 284 284 284 284 284 283 282 281 280 279 278
268 267 267 267 267 267 267 267 268 268 268 268 269 269 269 270 271 272 273 274 276 276 277 277 276 279 280 280 281 282 282 282 283 283 284 283 283 282 281 280 279 278 277
267 266 266 266 266 266 267 267 267 267 267 267 268 268 268 269 270 271 272 273 274 276 277 277 278 279 279 280 280 281 281 281 282 282 282 282 282 281 280 279 279 278 276
266 266 266 266 266 266 266 266 266 267 267 267 267 267 268 268 269 270 270 272 273 274 276 277 277 278 278 279 280 280 280 280 281 281 281 281 281 279 279 279 278 276 275
Wind_Speed
32 32 33 34 35 38 37 37 38 37 40 40 38 34 38 41 41 39 37 38 37 34 35 37 35 38 36 34 34 31 26 25 16 9 19 17 28 31 29 26 27 25 24
32 33 33 33 34 34 37 38 39 40 37 39 36 33 37 44 43 38 37 38 38 36 36 36 36 40 35 36 35 33 32 32 26 9 16 18 20 30 31 30 30 27 26
32 31 32 33 33 36 37 38 39 32 40 37 34 38 38 38 39 40 41 41 39 40 42 41 40 39 37 36 37 36 33 29 25 18 11 20 17 27 30 28 28 28 26
31 31 30 31 36 37 38 36 37 31 35 36 34 39 39 38 40 38 39 37 38 41 41 40 42 43 40 40 35 36 29 25 25 27 20 22 22 27 30 30 28 28 29
29 26 25 27 31 34 35 33 35 32 32 33 34 35 36 37 39 43 41 41 39 38 38 37 40 40 43 42 42 38 33 31 27 27 20 19 22 26 26 27 21 26 24
29 26 23 18 28 31 28 27 30 33 31 28 37 40 34 31 36 42 41 40 37 38 38 39 40 42 46 42 40 40 39 34 25 17 14 18 20 24 28 27 21 16 7
30 30 25 13 18 21 22 23 28 25 26 31 32 38 36 35 37 38 38 36 35 34 34 34 35 38 44 45 39 34 30 31 29 23 28 23 24 33 35 28 23 17 9
30 31 34 28 22 19 24 20 19 24 25 31 30 32 36 32 31 34 31 32 34 34 33 32 34 36 41 43 38 32 27 19 18 23 23 28 26 32 25 35 30 20 9
34 36 35 28 26 29 25 24 25 29 25 30 40 32 39 33 24 25 30 26 28 30 28 27 28 30 34 36 38 34 33 36 32 27 24 19 19 19 24 25 26 24 6
38 38 34 31 38 32 28 29 35 36 33 43 43 37 44 37 29 29 29 29 22 25 22 19 18 23 27 32 35 34 30 30 31 27 27 24 22 21 20 21 27 24 10
31 33 39 45 42 39 38 36 33 40 42 38 45 43 44 40 38 31 29 29 24 25 25 18 15 18 20 19 22 25 24 24 23 25 25 23 22 22 22 21 22 28 24
31 38 40 41 39 37 35 35 38 38 36 35 37 36 40 41 39 39 35 29 27 31 25 19 15 17 21 20 17 17 16 19 24 24 23 23 24 24 24 22 20 19 19
34 33 34 38 40 37 38 37 34 32 33 26 29 29 33 27 32 37 34 34 32 32 26 24 23 20 18 17 16 15 17 20 24 24 23 23 22 23 22 21 18 17 14
31 34 34 34 33 39 38 37 36 32 29 27 27 25 23 26 30 28 30 31 31 29 26 25 21 20 19 20 19 15 17 19 23 25 23 24 24 25 25 25 25 23 23
24 28 31 31 31 29 33 34 31 38 32 27 27 27 24 28 27 28 29 29 26 22 24 23 22 19 18 17 15 14 15 17 20 22 25 27 28 28 27 26 26 26 19
23 24 26 25 27 28 26 24 34 36 35 37 35 34 32 27 24 23 23 23 22 21 23 21 18 17 15 13 14 14 13 15 17 21 23 26 27 27 26 24 25 21 25
29 26 26 28 26 24 23 22 18 25 27 33 31 31 28 25 22 20 20 22 21 23 21 18 16 16 13 11 9 10 11 11 14 17 19 21 24 24 26 23 22 23 21
23 24 24 24 25 25 24 24 20 18 17 25 26 27 25 24 23 21 19 19 21 21 19 17 16 14 13 11 9 10 11 12 13 14 16 18 21 24 23 21 22 23 23
22 22 21 21 21 21 22 23 24 24 24 23 24 25 22 18 20 23 21 23 18 17 17 15 14 13 12 10 8 7 8 11 13 15 16 17 20 24 21 23 24 26 28
16 18 18 19 20 22 22 22 23 22 22 21 22 24 20 18 22 21 21 19 17 16 15 15 12 11 10 9 9 8 8 8 11 13 16 18 20 23 23 26 28 27 25
13 15 15 16 17 17 16 17 15 15 15 15 15 16 14 18 16 14 15 15 15 14 12 11 11 10 8 8 6 7 7 8 11 13 16 18 22 24 26 26 26 26 28
8 9 10 11 10 10 9 9 9 10 10 11 11 11 11 11 12 12 11 11 10 10 9 9 8 8 7 6 4 5 6 9 11 12 16 19 23 25 26 27 28 29 29
4 4 5 6 5 5 5 5 4 3 3 4 5 6 7 7 7 7 7 7 8 8 8 7 5 4 4 3 4 4 6 9 12 14 18 21 23 25 27 29 31 30 30
2 1 1 2 3 1 1 1 3 4 3 2 2 2 3 3 3 3 3 3 4 4 4 3 4 2 1 0 1 5 7 8 11 14 17 21 23 25 26 28 29 29 30
3 3 4 3 4 4 3 3 3 3 3 3 2 2 2 3 2 2 2 2 1 1 2 1 1 2 1 2 3 2 6 8 10 14 17 20 24 25 27 30 30 30 31
6 7 7 7 7 7 7 7 6 5 6 5 4 4 3 3 3 4 3 2 1 1 0 0 1 1 1 2 3 4 6 10 12 15 18 21 24 26 29 31 31 32 31
Wind_Direction
285 277 269 261 255 252 252 248 247 240 229 233 237 239 200 188 183 181 176 173 171 166 171 169 170 173 169 176 175 178 176 174 164 152 173 186 196 201 200 201 202 202 203
282 276 266 260 252 248 243 240 243 230 233 225 230 221 192 186 182 178 169 171 168 167 167 167 166 173 175 174 173 174 175 182 166 138 168 174 195 204 200 195 195 195 201
288 276 265 253 243 238 237 234 235 240 225 229 228 213 188 184 179 180 177 170 171 172 171 171 170 170 177 183 183 182 176 173 179 171 149 185 184 193 191 192 192 189 193
299 280 264 248 234 226 227 229 232 243 223 226 221 202 188 179 171 170 170 168 168 172 174 175 174 178 174 177 181 183 176 180 178 154 141 157 161 174 183 179 182 191 187
306 294 277 253 229 220 217 222 226 236 227 214 205 178 177 171 168 169 172 168 168 166 171 172 178 181 179 175 175 173 170 163 156 140 133 149 163 169 182 187 184 189 190
328 325 319 211 198 200 208 217 219 228 205 194 168 164 155 160 169 167 167 164 167 168 169 177 179 181 182 176 173 173 176 167 155 144 149 161 169 177 181 193 178 167 193
348 353 11 39 112 148 168 186 192 187 180 165 152 148 145 153 165 168 170 163 161 168 171 177 180 180 177 181 179 175 179 183 183 177 167 168 166 189 185 185 186 188 199
1 8 21 31 53 85 107 106 123 148 160 137 125 121 129 136 160 168 175 169 166 170 175 179 183 188 187 189 191 189 188 194 186 194 201 189 193 188 197 200 189 184 183
5 14 19 32 54 64 75 84 94 99 96 109 96 100 100 110 140 149 165 155 155 162 171 184 187 190 192 193 190 195 209 225 233 230 223 211 195 188 191 189 185 175 159
6 8 15 32 47 53 63 75 77 81 84 85 86 80 87 96 120 140 138 129 119 129 141 156 175 182 185 195 197 191 187 199 203 203 203 192 190 191 194 202 199 176 161
7 12 22 32 40 41 47 54 68 71 69 76 79 71 72 76 83 99 108 114 118 112 112 126 147 160 169 184 195 195 195 195 189 188 179 175 184 185 188 196 203 200 187
15 23 25 30 35 37 45 50 52 63 63 60 71 69 66 64 72 80 89 102 111 100 97 106 117 138 150 160 166 175 177 173 175 172 168 164 170 177 183 188 190 194 207
18 27 27 32 36 39 42 45 50 53 66 62 62 61 62 63 66 73 79 86 87 90 94 97 105 120 126 126 130 143 151 162 164 156 152 157 167 168 166 163 162 167 162
20 21 24 32 38 38 44 44 49 49 53 57 59 60 67 63 60 62 72 80 84 84 86 87 92 101 109 117 126 140 148 158 162 154 150 157 157 157 161 163 154 153 140
30 29 27 26 29 38 46 52 56 58 61 63 56 53 55 54 53 60 64 64 73 80 91 92 91 96 105 110 112 118 128 139 147 150 151 153 154 161 161 163 160 153 145
38 32 34 34 32 35 37 42 48 53 57 59 59 59 58 60 59 65 68 69 73 83 82 81 79 82 90 111 120 123 128 134 142 149 155 159 155 158 158 164 162 157 138
47 43 44 44 40 36 37 38 36 51 52 53 56 58 61 60 62 71 76 75 77 88 79 77 81 88 86 86 106 126 135 139 141 147 155 163 162 159 157 152 153 147 136
50 56 51 49 52 55 49 50 53 49 43 42 48 49 50 55 60 71 80 85 76 70 73 72 74 79 82 91 109 125 136 142 146 150 157 165 168 158 153 150 149 143 140
39 41 43 45 51 57 58 59 56 53 51 51 56 56 58 58 59 59 67 70 70 68 73 77 78 81 85 89 96 111 134 147 150 153 158 165 169 162 153 150 150 152 150
31 35 41 42 40 39 43 49 49 47 48 47 47 39 41 62 55 51 59 67 70 68 67 66 70 78 87 97 102 112 129 144 152 162 166 170 171 168 155 155 156 150 151
25 28 34 34 38 38 37 37 41 47 47 43 36 45 41 57 58 56 58 58 62 60 64 64 62 67 69 83 93 114 129 146 170 174 174 173 172 162 164 162 155 160 161
29 30 29 31 30 32 40 43 39 34 31 31 32 35 35 49 55 58 59 55 58 61 61 62 57 61 67 71 91 129 160 173 176 178 177 175 173 172 165 161 166 164 162
42 34 24 14 19 31 37 34 48 64 43 26 16 23 38 48 55 52 44 48 46 45 49 48 52 47 53 85 121 135 180 191 190 188 184 178 175 171 172 171 168 163 163
314 314 308 302 314 319 331 332 330 343 343 338 350 340 349 10 24 31 35 50 59 53 46 59 32 10 1 4 194 182 194 203 205 198 195 185 179 178 175 171 167 165 161
290 289 287 289 271 285 273 274 260 258 268 277 272 272 293 300 318 333 327 358 22 73 50 27 28 0 260 256 242 216 196 205 208 202 196 192 184 181 176 172 168 164 161
300 296 292 282 276 277 267 265 265 267 271 274 270 267 257 255 259 261 268 257 261 236 232 63 60 9 322 258 230 209 202 199 201 200 194 189 182 177 175 168 164 163 162